Location: Cactus School
(34.5700°N, 118.0931°W)
Time: 22:18:24
(UTC-07:00)

Vanguard 2 - Pass Details

Date: 23 April 2024
Orbit: 553 x 2914 km, 32.9° (Epoch: 18 May)

Event Time Altitude Azimuth Distance (km) Brightness Sun altitude
Exits shadow 04:58:00 - 274° (W) 5,566 11.4 -14.7°
Reaches altitude 10° 04:58:48 10° 274° (W) 5,396 11.3 -14.5°
Maximum altitude 05:16:07 81° 191° (S) 2,932 10.4 -11.3°
Drops below altitude 10° 05:32:30 10° 106° (ESE) 5,144 12.6 -8.2°
Sets 05:36:00 0° 106° (ESE) 5,920 13.0 -7.5°
